Location: Colonia Mina de C?rbuni
(46.1667°N, 22.7167°E)
Time: 10:07:47
(UTC+00:00)

deb Explorer IX - Pass Details

Date: 20 April 2024
Orbit: 513 x 891 km, 38.7° (Epoch: 21 May)

Event Time Altitude Azimuth Distance (km) Brightness Sun altitude
Rises 08:39:08 0° 209° (SSW) 3,343 ? 48.6°
Reaches altitude 10° 08:42:18 10° 192° (SSW) 2,473 ? 48.9°
Maximum altitude 08:46:18 19° 150° (SSE) 1,980 ? 49.4°
Drops below altitude 10° 08:50:26 10° 108° (ESE) 2,573 ? 49.9°
Sets 08:53:49 0° 91° (E) 3,528 ? 50.2°
